Weather History for KLAW - September, 2013

Change the Weather History Date:

Friday, September 6, 2013

  Actual Average Record
Temperature  
Mean Temperature 86 °F -  
Max Temperature 100 °F 91 °F 103 °F (1963)
Min Temperature 73 °F 66 °F 48 °F (2011)
Cooling Degree Days 22    
Growing Degree Days 36 (Base 50)    
Moisture  
Dew Point 60 °F    
Average Humidity 44    
Maximum Humidity 62    
Minimum Humidity 20    
Precipitation  
Precipitation 0.00 in - - ()
Sea Level Pressure  
Sea Level Pressure 30.00 in    
Wind  
Wind Speed 4 mph (SE)    
Max Wind Speed 7 mph    
Max Gust Speed -    
Visibility 10 miles    
Events      
Averages and records for this station are not official NWS values.
T = Trace of Precipitation, MM = Missing Value Source: NWS Daily Summary

Daily Weather History Graph

Daily Weather History Graph

Search for Another Location

Airport or City:

Trip Planner

Search our weather history database for the weather conditions in past years. The results will help you decide how hot, cold, wet, or windy it might be!

Date:

Astronomy

Sep. 06, 2013 Rise Set
Actual Time 7:10 AM CDT 7:52 PM CDT
Civil Twilight 6:45 AM CDT 8:18 PM CDT
Nautical Twilight 6:14 AM CDT 8:48 PM CDT
Astronomical Twilight 5:44 AM CDT 9:18 PM CDT
Moon 8:19 AM CDT (9/6) 8:24 PM CDT (9/6)
Length of Visible Light 13h 33m
Length of Day
12h 42m
New Moon, 2% of the Moon is Illuminated
Sep 6
New Moon
Sep 12
First Quarter
Sep 19
Full
Sep 26
Last Quarter
Oct 4
New

Hourly Weather History & Observations

Time (CDT) Temp. Heat Index Dew Point Humidity Pressure Visibility Wind Dir Wind Speed Gust Speed Precip Events Conditions
12:53 AM 79.0 °F - 59.0 °F 50% 30.05 in 10.0 mi East 4.6 mph - N/A   Clear
1:53 AM 77.0 °F - 60.1 °F 56% 30.05 in 10.0 mi East 4.6 mph - N/A   Clear
2:53 AM 75.9 °F - 60.1 °F 58% 30.04 in 10.0 mi ESE 3.5 mph - N/A   Clear
3:53 AM 75.0 °F - 60.1 °F 60% 30.03 in 10.0 mi ESE 4.6 mph - N/A   Clear
4:53 AM 75.0 °F - 60.1 °F 60% 30.03 in 10.0 mi East 4.6 mph - N/A   Clear
5:53 AM 73.9 °F - 60.1 °F 62% 30.03 in 10.0 mi ESE 4.6 mph - N/A   Clear
6:53 AM 73.9 °F - 60.1 °F 62% 30.04 in 10.0 mi ESE 5.8 mph - N/A   Clear
7:53 AM 73.9 °F - 60.1 °F 62% 30.06 in 10.0 mi ESE 3.5 mph - N/A   Clear
8:53 AM 78.1 °F - 62.1 °F 58% 30.07 in 10.0 mi SSE 5.8 mph - N/A   Clear
9:53 AM 84.0 °F 84.5 °F 62.1 °F 47% 30.07 in 10.0 mi SSW 4.6 mph - N/A   Clear
10:53 AM 89.1 °F 90.0 °F 63.0 °F 42% 30.06 in 10.0 mi South 5.8 mph - N/A   Clear
11:53 AM 93.0 °F 94.2 °F 63.0 °F 37% 30.06 in 10.0 mi Variable 3.5 mph - N/A   Clear
12:53 PM 97.0 °F 97.8 °F 62.1 °F 31% 30.03 in 10.0 mi South 5.8 mph - N/A   Clear
1:53 PM 98.1 °F 98.1 °F 60.1 °F 28% 30.01 in 10.0 mi Calm Calm - N/A   Mostly Cloudy
2:53 PM 99.0 °F 98.1 °F 57.0 °F 25% 29.98 in 10.0 mi ESE 6.9 mph - N/A   Clear
3:53 PM 100.0 °F 98.8 °F 55.9 °F 23% 29.95 in 10.0 mi Calm Calm - N/A   Clear
4:53 PM 100.9 °F 98.7 °F 53.1 °F 20% 29.93 in 10.0 mi Variable 3.5 mph - N/A   Clear
5:53 PM 99.0 °F 98.1 °F 57.0 °F 25% 29.93 in 10.0 mi SSE 6.9 mph - N/A   Clear
6:53 PM 98.1 °F 96.8 °F 57.0 °F 25% 29.92 in 10.0 mi SSE 5.8 mph - N/A   Clear
7:53 PM 93.0 °F 92.3 °F 59.0 °F 32% 29.92 in 10.0 mi SE 4.6 mph - N/A   Clear
8:53 PM 89.1 °F 89.0 °F 61.0 °F 39% 29.94 in 10.0 mi SSE 5.8 mph - N/A   Clear
9:53 PM 84.9 °F 85.0 °F 61.0 °F 44% 29.95 in 10.0 mi SE 3.5 mph - N/A   Clear
10:53 PM 82.9 °F 83.3 °F 61.0 °F 47% 29.95 in 10.0 mi Calm Calm - N/A   Clear
11:53 PM 81.0 °F 81.9 °F 62.1 °F 52% 29.96 in 10.0 mi East 3.5 mph - N/A   Clear